Year,Month,Day,Hour,Minute,Value (Times are PST for windgust in km/hr)
2013,03,21,07,48,6.40
2013,03,21,07,49,11.30
2013,03,21,07,50,11.30
2013,03,21,07,51,11.30
2013,03,21,07,52,9.60
2013,03,21,07,53,8.10
2013,03,21,07,54,6.40
2013,03,21,07,55,8.10
2013,03,21,07,56,8.10
2013,03,21,07,57,8.10
2013,03,21,07,58,8.10
2013,03,21,07,59,8.10
2013,03,21,08,00,6.40
2013,03,21,08,01,6.40
2013,03,21,08,02,6.40
2013,03,21,08,03,6.40
2013,03,21,08,04,6.40
2013,03,21,08,05,6.40
2013,03,21,08,06,6.40
2013,03,21,08,07,6.40
2013,03,21,08,08,6.40
2013,03,21,08,09,6.40
2013,03,21,08,10,6.40
2013,03,21,08,44,3.20
2013,03,21,08,45,3.20
2013,03,21,08,46,3.20
2013,03,21,08,47,1.60
2013,03,21,08,48,1.60
2013,03,21,08,49,3.20
2013,03,21,08,50,3.20
2013,03,21,08,51,3.20
2013,03,21,08,52,6.40
2013,03,21,08,53,6.40
2013,03,21,08,54,6.40
2013,03,21,08,55,8.10
2013,03,21,08,56,4.80
2013,03,21,08,57,4.80
2013,03,21,08,58,4.80
2013,03,21,08,59,4.80
2013,03,21,09,00,4.80
2013,03,21,09,01,4.80
2013,03,21,09,02,4.80
2013,03,21,09,03,4.80
2013,03,21,09,04,4.80
2013,03,21,09,05,4.80
2013,03,21,09,06,4.80
2013,03,21,09,07,4.80
2013,03,21,09,08,4.80
2013,03,21,09,09,4.80
2013,03,21,09,10,4.80
2013,03,21,09,11,4.80
2013,03,21,09,12,4.80
2013,03,21,09,13,4.80
2013,03,21,09,14,4.80
2013,03,21,09,15,4.80
2013,03,21,09,16,4.80
2013,03,21,09,17,3.20
2013,03,21,09,18,1.60
2013,03,21,09,19,1.60
2013,03,21,09,20,3.20
2013,03,21,09,21,3.20
2013,03,21,09,22,3.20
2013,03,21,09,23,1.60
2013,03,21,09,25,6.40
2013,03,21,09,26,6.40
2013,03,21,09,27,6.40
2013,03,21,09,28,4.80
2013,03,21,09,29,6.40
2013,03,21,09,30,6.40
2013,03,21,09,31,4.80
2013,03,21,09,32,8.10
2013,03,21,09,33,3.20
2013,03,21,09,34,3.20
2013,03,21,09,35,3.20
2013,03,21,09,36,4.80
2013,03,21,09,37,4.80
2013,03,21,09,38,3.20
2013,03,21,09,39,3.20
2013,03,21,09,40,3.20
2013,03,21,09,41,4.80
2013,03,21,09,42,4.80
2013,03,21,09,43,4.80
2013,03,21,09,44,6.40
2013,03,21,09,45,6.40
2013,03,21,09,46,8.10
2013,03,21,09,47,6.40
2013,03,21,09,48,8.10
2013,03,21,09,49,6.40
2013,03,21,09,50,6.40
2013,03,21,09,51,6.40
2013,03,21,09,52,6.40
2013,03,21,09,53,8.10
2013,03,21,09,54,4.80
2013,03,21,09,55,4.80
2013,03,21,09,56,9.60
2013,03,21,09,57,8.10
2013,03,21,09,58,6.40
2013,03,21,09,59,9.60
2013,03,21,10,00,8.10
2013,03,21,10,01,4.80
2013,03,21,10,02,4.80
2013,03,21,10,03,3.20
2013,03,21,10,04,3.20
2013,03,21,10,05,4.80
2013,03,21,10,06,6.40
2013,03,21,10,07,4.80
2013,03,21,10,08,1.60
2013,03,21,10,09,6.40
2013,03,21,10,10,6.40
2013,03,21,10,11,8.10
2013,03,21,10,12,4.80
2013,03,21,10,13,3.20
2013,03,21,10,14,1.60
2013,03,21,10,15,3.20
2013,03,21,10,16,6.40
2013,03,21,10,17,6.40
2013,03,21,10,18,6.40
2013,03,21,10,19,4.80
2013,03,21,10,20,6.40
2013,03,21,10,21,6.40
2013,03,21,10,22,4.80
2013,03,21,10,23,4.80
2013,03,21,10,24,6.40
2013,03,21,10,25,8.10
2013,03,21,10,26,4.80
2013,03,21,10,27,6.40
2013,03,21,10,28,6.40
2013,03,21,10,29,6.40
2013,03,21,10,30,6.40
2013,03,21,10,31,8.10
2013,03,21,10,32,4.80
2013,03,21,10,33,3.20
2013,03,21,10,34,9.60
2013,03,21,10,35,9.60
2013,03,21,10,36,4.80
2013,03,21,10,37,4.80
2013,03,21,10,38,3.20
2013,03,21,10,39,4.80
2013,03,21,10,40,1.60
2013,03,21,10,41,6.40
2013,03,21,10,42,8.10
2013,03,21,10,43,9.60
2013,03,21,10,44,6.40
2013,03,21,10,45,9.60
2013,03,21,10,46,9.60
2013,03,21,10,47,9.60
2013,03,21,10,48,6.40
2013,03,21,10,49,9.60
2013,03,21,10,50,9.60
2013,03,21,10,51,8.10
2013,03,21,10,52,6.40
2013,03,21,10,53,6.40
2013,03,21,10,54,6.40
2013,03,21,10,55,8.10
2013,03,21,10,56,8.10
2013,03,21,10,57,8.10
2013,03,21,10,58,9.60
2013,03,21,10,59,9.60
2013,03,21,11,00,9.60
2013,03,21,11,01,9.60
2013,03,21,11,02,9.60
2013,03,21,11,03,6.40
2013,03,21,11,04,8.10
2013,03,21,11,05,9.60
2013,03,21,11,06,9.60
2013,03,21,11,07,6.40
2013,03,21,11,08,8.10
2013,03,21,11,09,11.30
2013,03,21,11,10,6.40
2013,03,21,11,11,8.10
2013,03,21,11,12,11.30
2013,03,21,11,13,9.60
2013,03,21,11,14,9.60
2013,03,21,11,15,8.10
2013,03,21,11,16,8.10
2013,03,21,11,17,8.10
2013,03,21,11,18,11.30
2013,03,21,11,19,9.60
2013,03,21,11,20,11.30
2013,03,21,11,21,9.60
2013,03,21,11,22,4.80
2013,03,21,11,23,11.30
2013,03,21,11,24,8.10
2013,03,21,11,25,8.10
2013,03,21,11,26,8.10
2013,03,21,11,27,8.10
2013,03,21,11,28,9.60
2013,03,21,11,29,9.60
2013,03,21,11,30,9.60
2013,03,21,11,31,14.50
2013,03,21,11,32,8.10
2013,03,21,11,33,4.80
2013,03,21,11,34,8.10
2013,03,21,11,35,8.10
2013,03,21,11,36,8.10
2013,03,21,11,37,8.10
2013,03,21,11,38,6.40
2013,03,21,11,39,9.60
2013,03,21,11,40,8.10
2013,03,21,11,41,6.40
2013,03,21,11,42,8.10
2013,03,21,11,43,8.10
2013,03,21,11,44,9.60
2013,03,21,11,45,9.60
2013,03,21,11,46,8.10
2013,03,21,11,47,6.40
2013,03,21,11,48,9.60
2013,03,21,11,49,9.60
2013,03,21,11,50,8.10
2013,03,21,11,51,8.10
2013,03,21,11,52,9.60
2013,03,21,11,53,6.40
2013,03,21,11,54,14.50
2013,03,21,11,55,14.50
2013,03,21,11,56,11.30
2013,03,21,11,57,11.30
2013,03,21,11,58,11.30
2013,03,21,11,59,9.60
2013,03,21,12,00,11.30
2013,03,21,12,01,9.60
2013,03,21,12,02,9.60
2013,03,21,12,03,8.10
2013,03,21,12,04,8.10
2013,03,21,12,05,6.40
2013,03,21,12,06,9.60
2013,03,21,12,07,9.60
2013,03,21,12,08,11.30
2013,03,21,12,09,8.10
2013,03,21,12,10,11.30
2013,03,21,12,11,11.30
2013,03,21,12,12,9.60
2013,03,21,12,13,9.60
2013,03,21,12,14,9.60
2013,03,21,12,15,9.60
2013,03,21,12,16,8.10
2013,03,21,12,17,6.40
2013,03,21,12,18,8.10
2013,03,21,12,19,6.40
2013,03,21,12,20,8.10
2013,03,21,12,21,8.10
2013,03,21,12,22,9.60
2013,03,21,12,23,12.90
2013,03,21,12,24,9.60
2013,03,21,12,25,8.10
2013,03,21,12,26,9.60
2013,03,21,12,27,8.10
2013,03,21,12,28,9.60
2013,03,21,12,29,8.10
2013,03,21,12,30,9.60
2013,03,21,12,31,11.30
2013,03,21,12,32,9.60
2013,03,21,12,33,9.60
2013,03,21,12,34,9.60
2013,03,21,12,35,14.50
2013,03,21,12,36,8.10
2013,03,21,12,37,9.60
2013,03,21,12,38,8.10
2013,03,21,12,39,12.90
2013,03,21,12,40,9.60
2013,03,21,12,41,8.10
2013,03,21,12,42,9.60
2013,03,21,12,43,9.60
2013,03,21,12,44,8.10
2013,03,21,12,45,9.60
2013,03,21,12,46,8.10
2013,03,21,12,47,8.10
2013,03,21,12,48,4.80
2013,03,21,12,49,4.80
2013,03,21,12,50,4.80
2013,03,21,12,51,4.80
2013,03,21,12,52,6.40
2013,03,21,12,53,11.30
2013,03,21,12,54,8.10
2013,03,21,12,55,8.10
2013,03,21,12,56,6.40
2013,03,21,12,57,8.10
2013,03,21,12,58,8.10
2013,03,21,12,59,6.40
2013,03,21,13,00,6.40
2013,03,21,13,01,6.40
2013,03,21,13,02,9.60
2013,03,21,13,03,8.10
2013,03,21,13,04,8.10
2013,03,21,13,05,8.10
2013,03,21,13,06,6.40
2013,03,21,13,07,6.40
2013,03,21,13,08,6.40
2013,03,21,13,09,8.10
2013,03,21,13,10,4.80
2013,03,21,13,11,3.20
2013,03,21,13,12,6.40
2013,03,21,13,13,6.40
2013,03,21,13,14,8.10
2013,03,21,13,15,4.80
2013,03,21,13,16,4.80
2013,03,21,13,17,6.40
2013,03,21,13,18,6.40
2013,03,21,13,19,4.80
2013,03,21,13,20,8.10
2013,03,21,13,21,6.40
2013,03,21,13,22,4.80
2013,03,21,13,23,4.80
2013,03,21,13,24,4.80
2013,03,21,13,25,8.10
2013,03,21,13,26,8.10
2013,03,21,13,27,4.80
2013,03,21,13,28,8.10
2013,03,21,13,29,6.40
2013,03,21,13,30,8.10
2013,03,21,13,31,6.40
2013,03,21,13,32,6.40
2013,03,21,13,33,6.40
2013,03,21,13,34,8.10
2013,03,21,13,35,3.20
2013,03,21,13,36,3.20
2013,03,21,13,37,3.20
2013,03,21,13,38,3.20
2013,03,21,13,39,3.20
2013,03,21,13,40,1.60
2013,03,21,13,41,1.60
2013,03,21,13,43,1.60
2013,03,21,13,44,1.60
2013,03,21,13,45,4.80
2013,03,21,13,46,4.80
2013,03,21,13,47,6.40
2013,03,21,13,48,4.80
2013,03,21,13,49,3.20
2013,03,21,13,50,3.20
2013,03,21,13,51,3.20
2013,03,21,13,52,4.80
2013,03,21,13,53,6.40
2013,03,21,13,54,6.40
2013,03,21,13,55,4.80
2013,03,21,13,56,4.80
2013,03,21,13,57,3.20
2013,03,21,13,58,6.40
2013,03,21,13,59,6.40
2013,03,21,14,00,4.80
2013,03,21,14,01,4.80
2013,03,21,14,02,4.80
2013,03,21,14,03,4.80
2013,03,21,14,04,3.20
2013,03,21,14,05,3.20
2013,03,21,14,06,4.80
2013,03,21,14,07,3.20
2013,03,21,14,08,1.60
2013,03,21,14,09,3.20
2013,03,21,14,10,4.80
2013,03,21,14,11,4.80
2013,03,21,14,12,4.80
2013,03,21,14,13,1.60
2013,03,21,14,14,1.60
2013,03,21,14,15,4.80
2013,03,21,14,16,4.80
2013,03,21,14,17,4.80
2013,03,21,14,18,6.40
2013,03,21,14,19,8.10
2013,03,21,14,20,4.80
2013,03,21,14,21,4.80
2013,03,21,14,22,4.80
2013,03,21,14,23,4.80
2013,03,21,14,24,4.80
2013,03,21,14,25,6.40
2013,03,21,14,26,6.40
2013,03,21,14,27,6.40
2013,03,21,14,28,8.10
2013,03,21,14,29,9.60
2013,03,21,14,30,9.60
2013,03,21,14,31,8.10
2013,03,21,14,32,9.60
2013,03,21,14,33,8.10
2013,03,21,14,34,8.10
2013,03,21,14,35,6.40
2013,03,21,14,36,12.90
2013,03,21,14,37,12.90
2013,03,21,14,38,9.60
2013,03,21,14,39,12.90
2013,03,21,14,40,11.30
2013,03,21,14,41,11.30
2013,03,21,14,42,9.60
2013,03,21,14,43,9.60
2013,03,21,14,44,9.60
2013,03,21,14,45,11.30
2013,03,21,14,46,12.90
2013,03,21,14,47,12.90
2013,03,21,14,48,11.30
2013,03,21,14,49,9.60
2013,03,21,14,50,11.30
2013,03,21,14,51,14.50
2013,03,21,14,52,14.50
2013,03,21,14,53,14.50
2013,03,21,14,54,11.30
2013,03,21,14,55,16.10
2013,03,21,14,56,9.60
2013,03,21,14,57,11.30
2013,03,21,14,58,11.30
2013,03,21,14,59,11.30
2013,03,21,15,00,9.60
2013,03,21,15,01,11.30
2013,03,21,15,02,19.30
2013,03,21,15,03,16.10
2013,03,21,15,04,11.30
2013,03,21,15,05,16.10
2013,03,21,15,06,16.10
2013,03,21,15,07,16.10
2013,03,21,15,08,17.70
2013,03,21,15,09,16.10
2013,03,21,15,10,16.10
2013,03,21,15,11,16.10
2013,03,21,15,12,16.10
2013,03,21,15,13,16.10
2013,03,21,15,14,14.50
2013,03,21,15,15,11.30
2013,03,21,15,16,11.30
2013,03,21,15,17,9.60
2013,03,21,15,18,14.50
2013,03,21,15,19,12.90
2013,03,21,15,20,9.60
2013,03,21,15,21,12.90
2013,03,21,15,22,8.10
2013,03,21,15,23,8.10
2013,03,21,15,24,9.60
2013,03,21,15,25,8.10
2013,03,21,15,26,8.10
2013,03,21,15,27,6.40
2013,03,21,15,28,9.60
2013,03,21,15,29,6.40
2013,03,21,15,30,6.40
2013,03,21,15,31,8.10
2013,03,21,15,32,8.10
2013,03,21,15,33,4.80
2013,03,21,15,34,4.80
2013,03,21,15,35,3.20
2013,03,21,15,36,3.20
2013,03,21,15,37,1.60
2013,03,21,15,38,1.60
2013,03,21,15,39,3.20
2013,03,21,15,40,4.80
2013,03,21,15,41,3.20
2013,03,21,15,42,4.80
2013,03,21,15,43,6.40
2013,03,21,15,44,4.80
2013,03,21,15,45,6.40
2013,03,21,15,46,6.40
2013,03,21,15,47,3.20
2013,03,21,15,48,3.20
2013,03,21,15,49,1.60
2013,03,21,15,52,8.10
2013,03,21,15,53,8.10
2013,03,21,15,54,4.80
2013,03,21,15,55,4.80
2013,03,21,15,56,3.20
2013,03,21,15,57,12.90
2013,03,21,15,58,11.30
2013,03,21,15,59,6.40
2013,03,21,16,00,8.10
2013,03,21,16,01,4.80
2013,03,21,16,02,11.30
2013,03,21,16,03,12.90
2013,03,21,16,04,9.60
2013,03,21,16,05,9.60
2013,03,21,16,06,9.60
2013,03,21,16,07,8.10
2013,03,21,16,08,8.10
2013,03,21,16,09,9.60
2013,03,21,16,10,8.10
2013,03,21,16,11,4.80
2013,03,21,16,12,4.80
2013,03,21,16,13,4.80
2013,03,21,16,14,4.80
2013,03,21,16,15,4.80
2013,03,21,16,16,6.40
2013,03,21,16,17,4.80
2013,03,21,16,18,4.80
2013,03,21,16,19,9.60
2013,03,21,16,20,8.10
2013,03,21,16,21,4.80
2013,03,21,16,22,3.20
2013,03,21,16,23,11.30
2013,03,21,16,24,11.30
2013,03,21,16,25,8.10
2013,03,21,16,26,8.10
2013,03,21,16,27,9.60
2013,03,21,16,28,8.10
2013,03,21,16,29,9.60
2013,03,21,16,30,9.60
2013,03,21,16,31,9.60
2013,03,21,16,32,9.60
2013,03,21,16,33,8.10
2013,03,21,16,34,11.30
2013,03,21,16,35,9.60
2013,03,21,16,36,11.30
2013,03,21,16,37,9.60
2013,03,21,16,38,8.10
2013,03,21,16,39,9.60
2013,03,21,16,40,8.10
2013,03,21,16,41,8.10
2013,03,21,16,42,8.10
2013,03,21,16,43,9.60
2013,03,21,16,44,9.60
2013,03,21,16,45,8.10
2013,03,21,16,46,4.80
2013,03,21,16,47,9.60
2013,03,21,16,48,8.10
2013,03,21,16,49,9.60
2013,03,21,16,50,9.60
2013,03,21,16,51,11.30
2013,03,21,16,52,14.50
2013,03,21,16,53,8.10
2013,03,21,16,54,8.10
2013,03,21,16,55,9.60
2013,03,21,16,56,9.60
2013,03,21,16,57,8.10
2013,03,21,16,58,11.30
2013,03,21,16,59,11.30
2013,03,21,17,00,8.10
2013,03,21,17,01,8.10
2013,03,21,17,02,12.90
2013,03,21,17,03,11.30
2013,03,21,17,04,14.50
2013,03,21,17,05,14.50
2013,03,21,17,06,11.30
2013,03,21,17,07,16.10
2013,03,21,17,08,14.50
2013,03,21,17,09,9.60
2013,03,21,17,10,19.30
2013,03,21,17,11,17.70
2013,03,21,17,12,11.30
2013,03,21,17,13,16.10
2013,03,21,17,14,9.60
2013,03,21,17,15,11.30
2013,03,21,17,16,9.60
2013,03,21,17,17,19.30
2013,03,21,17,18,17.70
2013,03,21,17,19,16.10
2013,03,21,17,20,16.10
2013,03,21,17,21,14.50
2013,03,21,17,22,12.90
2013,03,21,17,23,11.30
2013,03,21,17,24,14.50
2013,03,21,17,25,12.90
2013,03,21,17,26,11.30
2013,03,21,17,27,11.30
2013,03,21,17,28,14.50
2013,03,21,17,29,9.60
2013,03,21,17,30,9.60
2013,03,21,17,31,16.10
2013,03,21,17,32,16.10
2013,03,21,17,33,14.50
2013,03,21,17,34,14.50
2013,03,21,17,35,14.50
2013,03,21,17,36,8.10
2013,03,21,17,37,14.50
2013,03,21,17,38,14.50
2013,03,21,17,39,12.90
2013,03,21,17,40,9.60
2013,03,21,17,41,16.10
2013,03,21,17,42,11.30
2013,03,21,17,43,11.30
2013,03,21,17,44,17.70
2013,03,21,17,45,16.10
2013,03,21,17,46,16.10
2013,03,21,17,47,16.10
2013,03,21,17,48,8.10
2013,03,21,17,49,14.50
2013,03,21,17,50,12.90
2013,03,21,17,51,9.60
2013,03,21,17,52,11.30
2013,03,21,17,53,11.30
2013,03,21,17,54,14.50
2013,03,21,17,55,8.10
2013,03,21,17,56,8.10
2013,03,21,17,57,8.10
2013,03,21,17,58,11.30
2013,03,21,17,59,9.60
2013,03,21,18,00,16.10
2013,03,21,18,01,24.20
2013,03,21,18,02,32.20
2013,03,21,18,03,33.80
2013,03,21,18,04,25.70
2013,03,21,18,05,30.60
2013,03,21,18,06,30.60
2013,03,21,18,07,38.60
2013,03,21,18,08,29.00
2013,03,21,18,09,27.40
2013,03,21,18,10,19.30
2013,03,21,18,11,14.50
2013,03,21,18,12,17.70
2013,03,21,18,13,16.10
2013,03,21,18,14,20.90
2013,03,21,18,15,20.90
2013,03,21,18,16,24.20
2013,03,21,18,17,17.70
2013,03,21,18,18,22.50
2013,03,21,18,19,22.50
2013,03,21,18,20,17.70
2013,03,21,18,21,24.20
2013,03,21,18,22,27.40
2013,03,21,18,23,22.50
2013,03,21,18,24,22.50
2013,03,21,18,25,22.50
2013,03,21,18,26,22.50
2013,03,21,18,27,22.50
2013,03,21,18,28,22.50
2013,03,21,18,29,22.50
2013,03,21,18,30,22.50
2013,03,21,18,31,22.50
2013,03,21,18,32,22.50
